Theta_e
330 331 330 330 328 328 328 327 327 327 327 327 326 326 326 325 323 323 322 321 321 321 320 319 319 319 317 318 319 319 318 318 317 317 316 314 312 312 311 309 309 310 310 309 309 310 309 309 311 312 313 311 310 309 309 309 308 308 308 308 309 308 308 307 307 307 308 308 308 308 308 308 307 306 305 304 302 302 301 302 302 304 306 308 311
330 331 331 330 330 329 328 328 328 327 327 327 327 327 326 325 323 322 322 320 320 320 320 318 319 319 318 318 318 318 317 316 316 315 313 310 308 308 307 307 307 307 306 306 305 305 304 304 305 307 309 309 306 305 305 305 305 304 304 305 306 306 305 305 305 305 304 304 304 304 304 305 305 306 307 307 306 305 303 302 301 300 301 302 304
330 331 331 330 330 329 327 328 328 328 327 327 327 327 327 326 323 323 322 321 320 320 320 318 319 320 318 318 318 317 317 315 314 312 310 308 307 306 306 306 305 304 303 303 302 301 301 300 300 300 303 303 300 300 301 301 302 302 303 304 304 303 302 303 303 304 304 303 303 303 302 301 300 301 303 304 305 305 305 305 304 304 303 301 300
330 332 330 329 330 329 327 328 329 329 328 327 327 327 327 326 324 324 324 323 321 320 320 319 320 320 318 318 318 317 316 315 313 311 309 308 306 306 305 304 303 302 301 300 300 299 299 298 298 297 297 297 297 297 297 297 298 299 299 300 302 301 300 300 301 304 304 303 304 303 302 300 298 298 299 300 300 301 302 303 304 305 307 306 304
331 331 330 329 329 328 328 328 329 329 328 327 327 327 327 326 325 325 325 324 322 320 319 319 319 319 318 319 318 317 316 315 312 309 307 306 305 304 303 302 301 300 300 299 299 299 298 297 297 296 296 295 295 295 295 295 296 297 298 300 301 300 300 300 301 303 303 302 302 301 300 299 298 298 299 297 296 297 297 300 301 303 305 306 306
330 330 330 328 328 328 326 325 327 327 327 327 328 327 327 326 326 325 324 323 322 320 320 319 318 319 318 318 317 315 313 312 309 306 306 305 303 303 301 301 301 301 301 300 299 299 298 296 296 295 295 295 294 294 294 294 295 296 298 301 301 300 299 298 299 300 300 299 298 297 297 296 296 297 297 295 295 295 295 296 298 300 301 302 304
327 327 328 327 325 323 322 323 325 325 326 327 328 328 326 326 325 324 323 322 321 320 319 318 318 319 317 316 315 312 309 309 307 305 304 303 303 302 302 302 302 302 301 300 299 298 297 296 295 295 294 294 294 294 294 293 294 294 295 297 297 296 295 295 295 296 296 295 294 294 294 294 294 295 294 294 294 295 295 296 297 299 300 301 303
327 325 325 326 321 320 324 325 324 324 326 328 328 326 325 325 325 323 322 322 321 319 318 318 318 317 315 313 311 309 308 308 306 304 303 303 303 303 302 302 302 301 300 299 297 296 295 294 294 294 294 294 293 293 293 293 293 293 292 293 294 293 293 293 294 294 293 292 292 292 292 293 293 292 292 292 293 293 294 295 295 296 297 299 300
328 326 325 325 321 324 327 323 323 325 327 327 326 324 323 324 324 322 322 321 320 318 317 317 317 316 313 310 307 306 308 307 305 304 303 303 303 303 303 302 300 299 297 296 295 294 294 294 293 293 293 293 293 292 292 292 292 292 291 291 291 291 291 291 292 291 291 291 291 291 291 291 291 290 290 290 291 291 291 292 292 293 294 294 296
325 324 325 323 321 324 324 320 323 326 326 325 324 323 322 323 323 322 321 320 319 318 316 315 314 313 311 309 307 306 306 305 304 304 304 304 303 302 301 299 297 296 295 294 293 293 293 292 292 292 292 292 292 292 291 291 291 291 290 290 290 290 290 290 290 290 290 289 289 290 289 289 290 290 289 289 290 290 290 292 293 294 294 294 296
321 320 323 323 322 323 323 323 325 325 324 322 321 323 323 323 322 321 321 319 317 316 314 312 310 310 310 308 307 306 305 305 304 304 303 302 301 299 297 296 295 294 293 293 292 292 292 292 291 291 291 291 291 291 291 290 290 290 290 290 290 289 289 289 289 289 289 289 289 289 289 289 289 289 289 289 289 289 291 292 292 292 293 293 293
321 321 325 326 324 324 324 326 325 323 322 321 321 323 324 323 321 320 320 316 314 312 311 309 308 308 308 306 306 305 304 304 303 303 301 300 298 296 295 294 293 293 292 292 291 291 291 291 291 291 291 290 290 290 290 290 290 290 290 290 290 289 289 289 289 289 289 289 289 288 288 288 288 289 289 289 289 290 291 292 292 292 292 292 292
322 324 326 326 325 324 323 324 323 321 321 321 322 323 322 321 317 316 315 309 308 309 308 307 306 305 306 305 305 304 303 303 302 301 299 297 296 295 293 293 292 292 292 291 291 291 291 291 290 290 290 290 290 290 290 290 289 290 289 289 289 289 289 289 288 288 288 288 288 288 287 287 287 287 288 289 289 290 290 290 291 292 292 292 293
322 323 323 323 323 322 321 321 321 321 321 322 322 321 318 315 310 308 307 303 303 304 304 305 304 303 303 303 304 303 302 302 300 298 297 297 295 293 292 292 291 291 291 291 290 290 290 290 290 289 290 289 289 289 289 289 289 289 289 289 288 288 288 288 288 288 287 287 287 287 287 286 286 286 287 288 288 288 288 288 289 290 291 291 292
320 320 321 321 320 320 321 322 321 321 320 320 319 316 310 306 303 301 302 302 301 301 302 303 303 302 301 301 303 301 299 299 298 297 297 295 294 292 291 291 291 291 290 290 290 290 290 289 289 289 289 289 289 289 289 289 288 288 288 288 288 288 288 287 287 287 287 287 286 286 286 286 286 286 287 287 286 286 286 286 287 288 289 290 292
319 319 319 318 319 320 321 320 319 317 316 315 312 308 304 301 300 299 299 300 300 300 302 301 300 301 300 300 301 300 299 298 297 296 295 294 293 292 291 291 290 290 290 290 290 289 289 289 289 289 289 289 289 288 288 288 288 288 288 288 288 287 287 287 287 286 286 286 286 286 286 286 286 286 286 286 286 286 285 286 286 287 288 289 291
319 319 318 318 319 320 320 318 315 312 311 309 305 303 301 300 299 299 299 299 299 300 301 300 299 300 300 299 300 299 299 298 296 295 294 293 292 291 291 290 290 290 290 289 289 289 289 289 288 288 288 288 288 288 288 288 288 288 288 287 287 287 286 286 286 286 286 286 286 286 286 286 286 286 286 285 285 285 285 285 285 287 289 289 289
319 319 318 318 319 320 318 314 309 307 305 304 302 300 299 298 298 298 299 299 298 298 299 298 298 299 298 298 297 297 297 297 295 293 293 292 291 290 290 290 289 289 289 289 289 288 288 288 288 288 288 288 288 288 288 287 287 287 287 286 286 286 286 286 286 286 286 286 286 286 286 286 286 286 285 285 285 285 285 285 285 287 289 289 289
318 318 318 319 319 318 314 308 304 303 302 301 299 299 298 298 299 298 298 299 297 297 297 297 297 298 297 296 295 294 294 294 294 293 292 291 291 290 289 289 289 289 289 288 288 288 288 288 288 288 288 288 287 287 287 287 286 286 286 286 286 286 286 286 286 286 286 286 286 286 286 285 285 285 285 285 285 285 285 286 286 287 288 288 288
317 318 318 319 318 313 307 303 301 300 299 299 298 298 299 299 300 299 298 298 297 296 296 296 296 296 296 295 294 294 294 293 293 293 292 291 290 289 289 289 288 288 288 288 288 288 288 288 288 288 287 287 287 287 286 286 286 286 286 286 286 286 286 286 286 286 286 286 286 285 285 285 285 285 285 285 284 285 286 286 286 287 288 287 288
317 318 318 316 313 307 302 301 299 299 298 298 298 299 299 300 300 299 298 298 297 297 296 296 296 295 295 294 294 293 293 293 292 292 291 291 290 289 288 288 288 288 288 288 288 288 287 287 287 287 287 287 286 286 286 286 286 286 286 286 286 286 285 285 285 285 285 285 285 285 285 285 285 284 284 284 284 285 286 286 285 286 287 288 288
317 317 314 311 306 302 300 299 298 298 297 298 299 300 300 300 300 299 298 298 298 297 297 296 296 295 295 294 294 293 293 292 292 291 291 291 290 289 289 288 288 288 288 288 288 287 287 287 287 287 286 286 286 286 286 286 286 286 286 285 285 285 285 285 285 285 285 285 285 285 285 285 284 285 284 284 284 285 285 285 285 286 287 288 287
316 313 308 304 301 299 298 298 297 297 297 299 300 301 301 301 300 300 299 298 298 298 298 298 297 296 295 294 294 293 293 292 292 292 291 290 290 289 289 288 288 288 288 288 287 287 287 287 287 286 286 286 286 286 286 286 286 285 285 285 285 285 285 285 285 285 285 285 285 285 285 285 285 285 284 284 284 284 284 284 286 287 287 286 286
312 307 303 300 299 298 297 297 297 297 298 300 301 301 301 301 301 300 300 300 300 300 300 299 298 297 296 294 294 293 293 292 292 291 291 290 290 289 289 289 288 288 288 287 287 287 287 287 287 286 286 286 286 286 286 285 285 285 285 285 285 285 285 285 285 285 285 285 285 285 285 284 284 284 284 284 284 284 284 285 285 286 286 286 286
306 302 300 299 298 297 297 297 297 299 300 301 301 301 301 301 301 301 301 301 301 301 300 300 298 297 295 294 294 293 293 292 292 291 291 290 290 289 289 288 288 288 287 287 287 287 287 287 286 286 286 286 285 285 285 285 285 285 285 285 285 285 285 285 285 285 285 285 285 284 284 284 284 284 284 284 284 284 284 285 285 284 284 284 285
302 300 298 297 297 297 297 297 298 300 300 301 301 301 301 301 301 301 301 301 301 301 300 299 298 297 295 294 293 293 292 292 291 291 290 290 289 289 289 288 288 287 287 287 287 287 287 286 286 286 286 285 285 285 285 285 285 285 285 285 285 285 285 285 285 285 284 284 284 284 284 284 284 284 284 284 284 283 284 284 284 284 283 283 284
301 299 297 297 297 297 297 297 299 300 300 301 301 301 301 301 301 301 301 301 301 300 300 299 298 297 295 294 293 292 292 291 291 290 290 289 289 289 288 288 288 287 287 287 287 287 286 286 286 286 285 285 285 285 285 285 285 285 285 285 285 284 284 284 284 284 284 284 284 284 284 284 284 284 283 283 283 283 283 284 284 284 283 282 282
299 298 297 297 296 296 297 298 299 300 300 301 301 301 301 301 301 301 301 300 300 299 299 298 297 296 294 293 292 292 291 290 290 290 289 289 288 288 288 287 287 287 286 286 286 286 286 286 286 285 285 285 285 285 285 285 284 284 284 284 284 284 284 284 284 284 284 284 284 284 284 283 283 283 283 283 282 282 283 283 283 283 283 283 283
299 297 297 297 296 297 297 298 299 300 300 300 300 300 301 301 300 300 300 300 299 299 298 297 296 295 293 292 292 291 291 290 290 289 289 288 288 288 287 287 286 286 286 286 286 286 286 286 285 285 285 285 285 285 284 284 284 284 284 284 284 284 284 284 284 284 283 284 284 284 283 283 283 283 282 282 282 281 282 282 282 282 283 283 283
298 297 297 296 296 297 298 298 299 299 300 300 300 300 300 300 300 299 299 299 299 298 297 295 294 293 292 291 291 291 290 290 289 289 288 288 288 287 287 286 286 286 285 285 285 285 285 285 285 285 285 285 284 284 284 284 284 284 284 284 284 284 284 283 283 283 283 284 284 284 283 283 283 282 282 281 281 280 280 281 281 282 282 283 283
297 297 296 296 296 297 298 298 299 299 299 299 300 300 300 300 299 299 299 299 298 298 296 294 293 291 291 291 290 290 290 289 289 288 288 287 287 287 286 286 286 285 285 285 285 285 285 285 285 285 285 284 284 284 284 284 284 284 284 284 284 283 283 283 283 283 283 283 284 283 283 282 282 282 281 280 280 280 280 280 280 280 281 282 282
297 296 296 296 296 297 298 298 299 299 299 299 299 299 299 299 298 298 298 298 298 297 295 293 291 290 290 290 289 289 289 289 288 288 288 287 287 286 286 286 285 285 285 285 285 285 285 284 284 284 284 284 284 284 284 284 283 283 283 283 283 283 283 283 283 283 283 283 283 283 282 282 282 281 280 280 279 279 279 279 279 279 280 280 280
297 296 296 296 296 297 298 298 298 298 299 299 299 298 298 298 298 297 298 298 298 297 295 293 291 290 289 289 289 289 289 288 288 288 287 287 286 286 286 285 285 285 285 284 284 285 285 284 284 284 284 284 284 283 284 284 283 283 283 283 283 283 283 283 283 283 283 283 283 283 282 282 281 281 280 279 279 279 279 279 279 279 279 279 280
296 296 296 296 296 297 297 298 298 298 298 298 298 298 298 297 297 297 297 297 297 296 294 293 291 290 289 289 288 288 288 288 288 288 287 287 286 286 286 285 285 285 285 284 284 284 285 285 284 284 284 284 284 283 283 283 283 283 283 283 283 283 283 283 283 283 283 283 283 282 281 281 281 281 279 279 279 279 279 279 279 279 279 279 279
296 296 295 295 296 297 297 297 297 297 297 297 297 297 297 296 296 296 296 296 296 295 294 292 290 289 289 288 288 288 288 288 288 287 287 287 286 286 286 286 285 285 284 284 284 284 285 285 285 284 284 284 283 283 283 283 283 283 283 283 283 283 283 283 283 283 282 283 282 282 281 281 281 280 279 279 279 279 278 278 278 278 278 278 278
296 295 295 295 296 296 296 296 296 296 296 296 296 295 295 295 294 295 295 295 295 294 292 291 290 289 289 288 288 288 288 288 288 287 287 287 287 286 286 286 285 285 284 284 284 284 284 285 284 284 284 284 283 283 283 283 283 283 283 283 283 283 283 283 283 283 282 282 282 281 281 281 281 280 279 279 279 278 278 278 278 278 278 278 278
295 295 295 295 295 296 296 296 296 295 295 295 295 294 294 294 293 293 294 294 294 293 292 291 290 289 288 288 288 288 288 288 288 287 287 287 287 286 286 286 285 285 284 284 284 284 284 284 284 284 284 283 283 283 283 283 283 283 283 283 283 283 283 283 283 282 282 282 282 281 280 281 281 280 279 278 278 278 278 278 278 278 278 278 278
295 295 295 295 295 295 295 295 295 295 294 294 293 293 293 293 293 293 293 293 293 292 291 290 290 289 288 288 288 288 288 288 287 287 287 287 287 286 286 286 285 285 284 284 284 284 284 284 284 284 284 283 283 283 283 283 283 283 283 283 283 283 283 283 283 282 282 282 282 281 280 281 281 280 279 278 278 278 278 278 278 278 277 277 277
294 294 294 294 295 295 295 295 294 294 293 293 293 292 292 292 292 292 293 292 292 292 291 291 289 289 288 288 288 288 288 287 287 287 287 287 287 287 286 286 286 285 285 284 284 284 284 284 283 283 283 283 283 283 283 283 282 282 282 283 283 283 283 283 283 282 282 282 281 281 280 281 281 280 279 278 278 278 278 278 277 277 277 277 277
294 294 294 294 295 294 294 294 293 293 293 292 292 292 292 292 292 292 292 292 292 292 292 291 289 289 288 288 288 288 287 287 287 287 287 287 287 287 286 286 286 286 285 285 284 284 284 284 284 283 283 283 283 283 283 282 282 282 282 282 283 283 283 283 282 282 282 282 282 281 280 281 281 280 279 278 278 277 278 278 277 277 277 277 277
294 294 294 294 294 294 294 293 293 293 292 292 292 292 291 291 291 291 291 291 292 293 292 290 289 289 288 288 288 287 287 287 287 287 287 287 287 287 286 286 286 286 286 285 285 284 284 284 284 283 283 283 283 283 283 282 282 282 282 282 282 282 283 283 282 281 281 282 282 281 281 281 281 280 279 278 278 277 277 278 277 277 277 277 277
293 293 294 294 294 293 293 293 293 293 292 292 292 292 291 291 291 291 291 291 293 293 292 291 290 289 289 289 288 287 287 287 287 287 287 287 287 287 286 286 286 286 286 285 285 285 284 284 284 283 283 283 283 283 283 282 282 282 282 282 282 282 282 282 282 282 281 281 281 281 281 280 280 280 279 278 278 277 277 277 277 277 277 276 276
293 293 293 293 293 293 293 293 292 292 292 292 292 291 291 290 290 290 290 291 292 293 292 291 290 290 290 289 288 287 287 287 287 287 287 286 286 286 286 286 286 286 286 286 285 285 285 285 284 283 283 284 284 283 282 282 282 282 282 282 281 282 282 282 282 282 281 280 280 281 282 281 280 279 279 278 277 276 277 277 277 277 276 276 276
293 293 293 293 293 293 293 292 292 292 292 292 292 291 290 290 290 290 290 291 292 293 293 292 291 291 290 289 288 287 287 287 287 287 287 286 286 286 286 286 286 286 286 286 286 285 285 285 285 284 284 284 284 283 282 282 282 282 282 281 281 281 281 281 281 281 280 279 279 279 281 281 279 279 279 278 277 276 277 277 277 276 276 276 276
293 292 293 293 293 293 292 292 292 292 292 292 291 290 290 290 290 290 290 291 292 293 293 292 291 291 290 289 288 288 288 288 287 287 287 287 286 286 286 286 286 286 286 286 286 286 285 285 285 285 285 284 283 283 282 281 281 281 281 281 281 281 281 281 280 280 279 278 277 278 280 281 279 279 279 279 277 276 276 277 277 276 276 276 276
293 292 292 292 292 292 292 292 292 292 292 291 291 290 290 290 290 290 290 292 293 293 293 292 291 291 290 288 288 288 288 288 288 287 287 287 287 286 286 286 286 286 286 286 286 286 285 285 285 285 285 284 283 283 282 281 281 281 280 280 280 280 281 280 279 279 278 277 276 276 278 280 278 278 279 279 278 277 276 276 276 276 276 276 275
292 292 292 292 292 292 292 292 292 292 292 291 290 290 290 289 289 290 291 292 292 292 293 292 291 290 289 288 288 288 288 288 288 287 287 287 287 287 286 286 286 286 286 286 286 285 285 285 285 285 285 284 284 283 281 281 280 280 280 280 280 280 279 279 279 278 277 277 276 275 277 279 277 277 279 279 278 278 277 276 276 276 276 276 275
292 291 291 292 291 291 291 291 292 293 291 290 290 290 289 289 289 290 291 292 292 292 292 291 290 290 289 288 288 288 288 288 288 287 287 287 287 287 287 286 286 286 286 286 286 285 285 285 285 285 285 284 283 282 281 280 279 279 280 280 279 278 278 278 278 278 277 276 276 275 276 277 276 276 278 278 278 278 278 276 276 276 276 275 275
293 292 291 291 291 290 291 292 292 292 291 290 290 289 289 289 289 290 291 292 292 292 291 290 290 289 288 288 288 288 288 288 288 287 287 287 287 287 286 286 286 286 286 286 286 286 285 285 285 285 284 284 283 282 281 279 279 280 280 280 278 277 277 277 278 278 277 276 276 275 275 276 275 275 276 277 277 278 278 277 276 276 276 275 275
293 292 290 290 290 290 292 293 292 291 290 290 290 289 289 289 289 290 292 292 292 291 290 290 289 289 288 288 288 288 288 288 288 287 287 286 286 286 286 286 286 286 286 286 286 286 285 285 285 284 284 284 283 282 280 279 279 280 280 279 277 277 276 276 277 277 277 276 275 275 274 275 274 274 275 276 277 278 278 277 276 276 275 275 275
294 292 291 291 291 292 293 293 291 290 290 290 290 290 289 288 288 290 292 292 291 290 289 289 289 288 288 288 288 288 288 288 287 287 287 286 286 286 286 286 286 286 286 286 286 285 285 285 284 284 284 284 283 282 280 279 279 279 278 277 277 276 276 276 276 276 276 276 275 274 274 274 274 273 273 273 275 278 279 277 276 275 275 275 275
Wind_Speed
12 14 12 11 10 8 7 5 4 4 2 1 3 3 1 4 4 3 5 5 5 5 4 6 7 7 9 10 11 12 12 12 11 11 12 12 11 11 11 10 9 9 10 10 11 13 13 13 15 16 15 14 13 13 13 12 12 12 12 15 17 17 18 18 19 19 20 20 20 20 20 21 21 21 21 22 22 22 22 22 23 24 24 23 22
13 15 13 12 11 9 9 7 6 5 4 3 5 5 2 3 2 2 6 5 4 3 3 7 6 6 10 10 11 11 11 11 11 11 12 12 12 12 11 11 11 11 11 11 11 12 12 12 13 15 16 16 14 13 13 13 14 15 15 16 16 17 18 19 20 21 20 21 21 20 20 20 21 21 21 22 22 22 22 22 22 23 23 24 25
13 14 15 14 13 10 8 8 8 8 7 5 5 8 4 2 3 1 6 5 6 4 3 6 4 5 8 9 9 8 8 10 10 12 12 13 13 13 12 12 12 12 12 12 12 12 13 13 13 14 16 15 13 13 13 14 14 15 16 17 17 16 17 18 20 21 21 22 22 22 21 20 20 21 22 22 23 23 23 23 22 22 22 23 24
14 14 14 14 14 10 8 10 12 10 8 6 7 12 7 3 5 0 5 4 6 4 2 3 2 5 7 5 6 6 6 8 10 11 11 12 12 12 12 12 12 12 12 12 12 13 13 14 14 14 14 13 13 13 13 14 14 14 15 16 18 18 17 17 19 21 22 22 22 23 23 22 21 22 22 23 23 23 24 23 23 23 23 23 23
15 16 15 13 13 11 10 13 14 12 10 8 10 14 11 6 7 3 2 1 3 2 1 1 2 4 4 2 3 4 5 6 9 10 9 10 11 11 11 11 11 11 12 12 12 13 13 14 14 14 14 13 13 13 13 14 14 15 16 17 18 18 18 17 17 19 20 20 21 22 23 23 24 23 24 24 24 24 24 24 23 23 23 23 23
16 16 17 15 14 13 12 13 14 14 14 11 12 16 13 8 8 8 7 4 1 2 3 0 1 1 0 1 2 3 5 7 8 9 9 10 10 10 11 11 11 11 12 12 13 14 14 14 14 14 14 13 13 13 13 13 14 14 15 17 17 17 17 17 17 19 20 20 21 22 23 25 24 24 25 25 25 25 26 25 25 24 24 24 24
17 18 17 16 14 14 14 12 12 13 16 16 15 16 13 8 8 9 7 2 1 4 4 1 2 3 2 1 2 2 4 6 8 8 9 9 9 9 10 11 11 12 12 13 14 14 14 14 14 14 14 13 13 13 13 13 13 13 13 15 16 17 17 18 19 19 20 22 23 24 25 26 25 25 26 26 26 26 27 26 26 25 26 26 25
17 17 17 16 14 15 14 12 11 13 17 18 15 13 9 8 8 6 3 3 4 4 4 3 5 5 3 2 1 2 4 6 6 7 7 7 8 9 9 10 11 12 13 14 14 14 14 14 14 14 14 13 13 13 13 13 13 13 13 14 16 17 18 19 20 20 21 23 24 25 26 26 27 28 28 28 28 27 27 27 27 27 27 27 27
19 18 19 16 15 15 13 10 10 11 14 15 13 9 7 8 8 7 7 7 6 4 6 6 6 5 3 1 1 3 3 4 4 5 6 6 7 8 8 9 10 11 12 13 13 14 14 14 14 14 14 13 13 13 14 14 13 13 13 14 15 17 18 19 20 21 22 23 24 25 26 27 28 29 29 30 30 30 30 30 30 30 30 30 29
20 20 20 17 15 14 11 12 13 13 11 11 12 10 8 10 11 10 9 7 6 5 7 8 7 5 4 2 2 2 2 2 3 4 4 5 7 7 8 9 10 11 11 12 13 13 14 14 13 13 13 14 14 14 14 14 14 14 14 15 16 17 19 19 20 22 23 24 25 25 26 27 28 29 30 30 31 31 32 31 31 31 31 30 30
16 16 18 17 15 15 15 15 17 15 13 12 12 12 12 13 12 11 10 8 5 5 7 7 6 6 4 3 2 1 0 1 2 3 4 5 6 7 8 9 10 11 11 12 13 14 14 14 14 14 15 15 15 15 15 15 15 15 16 16 18 19 20 21 22 24 25 26 26 27 28 28 29 30 30 31 31 31 32 32 33 33 33 32 31
14 13 17 18 16 18 19 19 18 17 15 13 13 15 15 14 12 10 11 11 9 7 7 5 5 6 6 4 4 3 2 2 2 2 3 5 6 8 9 10 11 11 12 13 13 14 14 14 14 14 15 15 15 15 15 16 16 17 17 18 19 20 22 23 24 26 27 27 28 29 29 30 30 31 31 32 32 31 31 32 34 34 34 35 34
18 19 21 21 20 20 21 21 20 17 15 14 16 17 15 13 12 11 11 10 11 11 9 6 5 6 7 7 6 4 3 3 2 3 4 6 7 8 9 10 11 11 12 13 13 14 14 14 14 14 15 15 15 16 16 17 18 19 19 20 21 22 23 25 26 27 28 28 29 29 30 30 31 31 31 32 32 32 32 33 33 33 34 34 34
22 24 25 24 22 22 21 20 19 17 18 18 17 16 14 13 13 13 12 9 9 10 10 8 6 5 5 6 6 5 4 4 4 4 5 6 7 7 9 10 11 12 12 13 13 13 14 14 15 15 15 16 17 18 19 20 21 22 23 23 24 25 26 27 28 29 29 30 31 31 31 31 32 31 31 32 32 33 34 34 33 33 33 34 34
21 21 22 22 21 20 19 18 18 17 18 17 16 15 15 15 12 9 11 11 9 9 10 8 6 6 5 5 6 6 5 6 6 6 6 6 6 8 9 10 11 12 12 12 12 13 13 14 14 15 16 17 18 19 20 22 23 24 24 25 25 26 27 27 28 29 30 31 32 32 32 33 33 33 32 33 33 34 35 35 34 34 34 34 34
20 18 18 19 19 17 15 16 16 15 15 15 17 17 16 16 13 8 8 9 10 10 10 9 6 6 5 5 6 6 6 7 7 6 6 5 6 8 9 10 11 10 10 11 11 12 12 13 14 15 16 17 18 19 20 21 22 22 23 25 25 26 27 27 28 29 30 31 32 32 33 34 34 34 35 35 35 36 36 36 36 35 36 35 34
20 19 18 18 17 15 14 14 15 16 15 16 18 18 16 14 12 10 8 7 7 8 10 9 7 6 6 5 5 7 7 6 6 5 6 6 6 7 8 9 9 9 9 9 10 10 11 12 13 14 16 17 18 18 19 20 21 22 24 24 25 25 26 27 28 29 30 31 32 32 33 34 35 36 37 37 38 39 39 39 38 36 36 37 36
21 21 19 18 17 16 15 15 17 19 18 18 18 17 16 15 12 10 8 7 6 6 7 7 7 7 7 6 6 6 6 6 6 5 6 6 6 6 6 7 7 7 8 8 9 10 11 12 13 14 15 16 17 18 19 20 21 22 23 23 24 24 26 27 28 29 30 31 32 33 34 35 36 37 38 39 40 40 41 41 40 38 37 37 37
22 22 20 19 18 17 17 18 21 21 20 19 18 17 16 15 13 11 9 8 7 6 5 5 6 7 7 7 7 7 6 6 7 6 6 5 6 5 5 5 5 5 6 7 9 10 10 11 12 13 14 15 16 17 18 19 20 21 21 22 23 25 26 27 28 29 31 32 33 34 35 36 37 38 40 41 41 42 41 41 41 39 38 39 39
22 22 22 21 20 19 21 23 23 22 21 19 17 17 15 14 13 12 10 9 8 7 5 4 4 5 6 6 7 8 7 7 6 6 6 5 5 5 3 3 4 5 6 7 9 9 10 10 12 12 13 14 16 17 18 18 19 19 20 22 23 25 26 27 29 30 31 32 33 34 35 36 37 38 39 41 42 42 41 42 42 40 39 40 40
23 23 23 22 22 23 24 24 23 22 21 20 18 17 15 14 12 12 11 9 8 7 4 4 3 4 5 6 7 7 6 6 5 4 4 4 5 4 2 2 3 5 6 7 8 8 9 9 10 11 12 14 15 16 17 17 18 18 20 22 23 24 25 26 28 29 30 31 33 34 35 35 37 38 39 40 42 42 42 43 43 42 41 40 40
26 25 25 25 25 26 25 24 23 22 21 20 19 17 16 14 12 12 10 8 7 6 4 3 2 2 5 6 6 6 5 4 3 3 2 2 3 3 2 2 3 5 6 7 8 8 8 9 10 11 12 13 14 15 16 16 17 18 20 21 22 23 24 25 27 28 29 31 32 33 34 35 37 38 40 41 43 44 44 45 45 42 41 41 41
27 27 28 29 28 27 26 25 24 23 22 20 18 17 15 14 12 11 10 8 6 4 3 2 2 4 6 7 6 6 5 4 4 4 4 3 2 2 2 3 3 5 6 7 7 7 8 9 10 11 12 14 14 15 15 16 17 18 19 20 22 23 24 25 26 28 29 30 31 32 33 35 37 38 40 42 44 46 47 48 47 43 42 42 42
30 31 32 31 30 28 27 26 25 24 22 21 18 16 15 13 11 10 8 7 5 4 4 4 5 5 7 7 7 7 7 6 6 6 5 5 5 5 4 4 4 5 6 7 7 7 7 9 10 12 13 14 14 15 15 16 17 18 19 20 22 23 24 25 27 28 29 30 32 33 34 35 37 39 41 43 45 47 48 49 49 47 45 43 42
34 35 34 33 31 30 28 27 26 24 22 20 18 16 14 12 10 8 7 5 4 4 5 5 5 6 7 7 7 8 8 7 7 7 7 7 6 6 6 6 6 6 7 7 7 7 8 8 10 11 12 13 14 14 15 16 17 18 19 20 21 23 24 26 27 29 30 31 33 34 35 37 38 40 42 43 45 47 46 45 47 47 45 43 42
37 37 35 33 32 30 28 27 26 24 22 20 18 16 13 11 9 7 6 4 3 4 4 5 5 6 6 7 8 8 8 8 8 8 8 8 8 7 7 7 8 8 8 8 8 8 8 8 9 11 11 12 13 14 14 15 16 18 19 20 21 23 25 26 28 29 31 32 33 34 36 37 39 40 42 43 44 45 42 40 42 45 43 42 41
37 36 34 33 32 30 29 28 26 24 22 20 18 16 14 11 9 7 5 3 2 3 4 4 5 5 6 7 8 8 9 9 8 9 9 9 9 8 8 8 9 9 9 9 8 8 8 9 9 10 11 12 13 14 15 16 17 18 19 21 22 23 25 26 28 29 31 32 33 35 36 37 38 40 41 42 43 42 38 35 37 40 40 39 40
37 36 35 33 32 31 30 28 26 24 22 20 17 15 13 11 9 7 5 3 1 2 3 4 5 6 7 8 8 9 9 9 9 9 9 9 9 9 9 9 9 10 10 10 9 9 10 10 9 10 11 12 14 15 16 17 18 19 20 21 22 24 25 26 27 29 30 32 33 34 35 36 37 39 40 41 41 39 35 33 34 35 35 37 40
37 36 35 34 33 32 31 29 27 25 22 20 18 16 14 12 9 7 5 3 1 2 3 4 6 7 8 8 9 9 9 10 10 10 9 10 10 10 10 10 10 11 11 12 12 11 10 10 11 12 12 13 15 16 17 19 20 21 21 23 24 25 26 27 27 28 30 31 33 34 35 36 37 38 39 39 39 37 34 32 33 33 33 36 39
38 37 36 35 34 33 31 29 27 25 23 21 19 17 14 12 10 8 6 3 2 3 5 6 7 8 9 9 10 10 10 10 10 10 10 10 10 11 11 11 11 12 12 13 14 13 12 11 13 15 15 15 17 18 19 20 22 23 23 24 25 26 27 28 28 29 30 32 33 35 35 35 36 37 37 37 37 36 35 33 34 33 34 35 37
39 38 37 36 35 34 32 30 28 26 24 22 19 18 15 13 11 9 6 4 3 4 7 8 9 9 10 10 10 10 10 10 10 10 10 11 11 12 12 12 12 13 13 15 16 15 14 14 15 16 17 17 18 20 21 22 23 24 25 25 26 27 28 29 29 29 30 32 34 35 35 35 36 36 36 36 37 37 36 36 36 35 34 34 35
40 38 37 37 35 34 32 30 28 26 24 22 20 19 16 14 12 10 7 5 5 6 7 9 10 10 11 11 11 11 11 10 10 10 11 11 12 13 13 13 13 14 14 16 19 18 16 16 17 17 19 20 20 21 23 24 25 26 27 27 28 28 29 30 30 29 30 32 34 35 34 34 35 36 36 36 37 37 37 37 37 37 36 35 35
40 39 38 37 36 34 32 30 28 26 24 23 21 20 17 15 13 11 8 7 6 6 8 10 10 11 11 11 12 12 11 11 10 11 11 12 14 14 15 14 14 15 16 17 20 21 19 18 18 19 20 22 22 23 25 27 27 28 29 29 30 30 31 31 30 30 30 33 34 34 33 33 35 36 36 37 37 38 37 37 37 37 37 36 35
41 40 38 37 36 34 32 30 29 27 25 23 22 20 18 16 14 12 10 8 7 7 8 10 11 12 12 13 13 12 12 11 11 11 12 13 14 15 15 16 16 17 18 19 20 22 22 21 21 22 22 23 24 25 27 28 29 31 31 31 32 32 32 32 31 30 31 33 34 34 32 33 35 37 36 36 37 37 37 37 37 36 36 35 34
42 40 39 38 36 34 33 31 29 27 25 24 22 20 18 16 14 12 10 9 8 8 9 10 11 12 13 13 13 13 12 12 12 12 13 14 15 16 16 17 18 18 19 20 21 22 24 25 25 25 24 25 26 27 28 29 30 31 32 33 33 34 34 33 32 31 31 33 34 33 32 33 35 37 36 36 36 37 37 36 36 35 35 35 34
43 41 40 38 36 35 33 31 29 27 26 25 23 21 19 17 15 13 11 10 9 9 10 11 11 12 13 14 14 14 13 13 13 13 14 15 16 17 18 18 19 19 20 21 21 23 25 27 28 28 28 28 28 29 29 30 31 32 33 34 34 35 35 34 33 32 32 33 34 33 31 33 36 37 36 36 36 36 36 36 35 35 34 35 35
44 42 40 39 37 35 33 31 29 27 26 25 23 22 20 18 16 14 13 11 10 10 10 11 12 13 14 14 14 15 14 14 14 14 15 16 17 18 19 19 20 20 21 22 22 24 26 28 29 30 30 31 31 31 31 32 32 33 34 35 35 36 35 35 34 32 32 34 34 33 32 33 36 38 37 36 36 35 35 35 35 34 35 35 36
44 42 41 39 37 35 33 31 30 28 26 25 24 23 21 19 17 15 14 13 11 11 11 12 13 14 15 15 15 16 15 15 15 15 16 17 18 19 19 20 20 21 22 23 23 25 26 28 30 31 32 32 33 33 32 33 34 34 35 36 36 36 36 36 35 33 32 34 35 33 32 33 36 38 37 36 35 34 34 35 35 34 35 35 35
44 42 40 39 37 35 34 32 31 29 27 26 25 23 22 20 18 17 15 14 12 11 12 13 14 15 16 16 17 17 16 15 15 17 18 19 19 20 20 20 21 22 23 24 24 26 27 29 31 32 33 33 33 34 34 34 34 34 36 37 38 37 37 37 36 34 32 33 35 35 32 33 36 38 38 37 36 35 35 35 35 35 35 34 34
44 42 40 39 37 37 35 33 32 29 28 27 26 24 23 21 20 19 16 15 13 13 14 14 15 16 17 17 18 17 17 16 17 18 19 20 21 21 21 21 22 23 24 25 25 27 28 30 32 32 33 34 34 34 34 34 34 35 35 37 38 38 38 38 37 36 33 33 36 37 35 33 35 38 39 38 37 36 36 35 35 35 34 34 34
44 42 40 40 39 38 36 34 32 30 29 28 26 25 24 23 22 20 17 16 16 16 16 16 17 18 18 19 19 18 17 17 18 19 20 22 23 22 22 22 24 24 25 26 27 27 29 31 32 33 33 34 34 34 35 34 34 35 36 37 38 38 38 38 38 36 34 33 36 39 37 35 36 39 40 40 38 37 37 36 36 36 35 34 35
44 43 42 41 40 39 37 35 33 32 30 29 27 26 25 24 23 20 18 18 19 19 18 19 19 19 19 20 21 20 19 18 19 20 21 22 24 24 23 24 25 26 26 27 28 28 29 32 33 33 34 35 34 34 35 34 34 36 36 37 38 38 38 39 39 36 34 34 36 40 39 35 37 39 40 41 40 38 37 37 36 36 35 34 35
45 44 43 43 41 39 38 36 34 33 31 30 29 28 27 26 24 21 20 20 22 22 22 22 22 22 22 23 22 21 20 19 19 20 21 23 24 24 25 26 26 27 27 28 28 28 30 32 33 33 34 35 34 34 35 35 35 36 36 37 37 38 38 39 39 37 34 33 36 40 40 36 36 40 41 41 41 39 37 37 36 36 35 35 36
45 45 44 43 42 41 40 38 36 34 32 30 30 29 28 27 25 23 22 23 25 25 25 25 24 24 25 25 24 22 21 20 20 21 22 23 24 25 26 27 27 28 28 29 28 29 30 32 33 34 34 34 34 34 34 35 36 36 37 37 37 37 37 37 37 37 34 33 35 39 40 37 36 39 41 41 42 41 38 36 36 35 34 35 36
47 46 45 44 43 42 41 39 36 34 33 32 31 30 29 28 26 24 24 26 28 28 28 28 27 26 27 27 26 24 22 22 22 23 23 24 24 25 27 28 29 29 30 30 29 29 30 32 33 34 33 34 34 34 34 35 37 37 37 38 37 37 37 36 36 36 33 31 33 37 40 38 35 39 42 41 42 43 40 37 35 34 35 35 36
49 48 47 46 45 43 41 39 36 35 34 33 32 31 30 28 27 26 26 30 31 31 30 30 29 28 29 30 29 26 25 25 25 25 25 26 26 27 28 29 30 30 31 31 30 30 32 33 35 35 34 34 35 35 35 36 37 37 38 39 38 36 36 36 36 36 33 30 30 34 40 39 35 38 42 41 43 45 42 38 35 33 35 36 36
50 49 47 46 45 43 41 39 37 37 36 34 33 32 31 29 28 28 30 33 34 34 33 32 31 31 32 32 31 29 28 28 28 28 28 28 29 30 31 32 32 32 33 33 31 31 33 34 36 36 35 36 36 36 36 37 38 38 38 38 36 36 36 36 37 36 33 30 28 30 38 39 34 37 42 42 43 47 45 40 35 33 36 38 37
49 48 46 46 45 43 41 39 38 38 37 35 34 33 31 31 31 32 34 36 37 37 36 33 33 34 34 34 33 32 32 31 30 30 30 31 32 33 34 35 35 35 36 35 33 33 34 35 36 36 36 37 37 36 37 37 36 37 38 37 36 36 36 38 39 37 34 31 27 28 36 38 34 37 42 42 43 47 47 41 36 35 39 40 38
46 47 47 46 45 43 40 40 40 39 38 36 34 33 33 33 34 35 38 40 40 39 37 35 36 36 36 36 35 35 35 34 33 32 32 33 34 35 37 38 38 39 39 37 35 36 36 36 36 37 38 38 37 37 36 32 32 35 37 37 38 37 36 37 39 37 36 33 28 27 33 36 35 38 42 43 43 46 47 44 39 39 41 41 39
41 43 44 44 43 42 42 42 41 40 38 36 35 35 36 35 36 38 41 43 42 41 39 37 37 38 38 38 38 38 38 37 36 35 35 36 36 37 39 40 41 42 42 39 38 39 38 38 38 39 39 39 39 38 35 31 31 36 38 38 38 38 36 37 37 37 37 35 29 27 32 36 36 37 41 44 45 44 45 47 45 43 42 42 41
35 39 41 42 43 44 43 42 40 40 39 38 37 38 37 36 39 43 45 45 45 44 41 40 40 40 41 41 41 41 41 39 39 39 38 38 39 39 40 42 44 45 44 41 42 42 41 41 41 40 40 40 40 39 36 34 35 38 37 36 36 36 36 37 36 35 37 35 29 27 32 36 36 37 39 42 45 45 45 48 50 47 43 42 43
Wind_Direction
213 204 202 194 185 182 188 189 177 174 169 166 164 167 140 94 89 72 74 86 86 68 35 44 49 32 30 29 23 21 20 17 15 13 9 8 10 13 16 19 25 28 26 29 36 41 42 43 50 54 41 33 36 34 31 24 17 15 12 14 12 2 355 353 348 345 343 340 338 337 336 334 332 329 326 323 321 318 316 312 308 304 302 303 306
212 205 203 197 191 194 204 198 190 210 225 215 195 194 179 104 125 37 47 58 56 58 23 29 42 35 29 20 15 18 16 13 12 10 10 16 24 30 33 38 41 41 40 40 40 41 41 41 44 49 47 40 33 27 23 20 16 16 16 19 19 12 7 6 1 357 355 352 348 344 340 339 336 335 333 331 329 325 322 320 318 313 307 301 299
212 206 206 203 202 208 221 213 202 218 236 239 214 198 185 130 178 29 27 24 25 57 59 20 39 46 22 9 11 18 13 9 7 8 12 21 30 35 39 43 44 44 45 45 44 43 41 39 37 36 39 36 27 22 19 18 19 20 18 19 18 12 8 10 7 3 2 2 360 355 349 345 342 341 340 339 337 333 328 325 325 325 323 315 306
214 212 212 209 209 216 226 218 209 215 233 246 221 202 191 175 184 67 358 354 7 31 65 11 58 40 5 3 19 12 10 9 2 4 14 25 32 36 40 43 44 42 41 41 39 37 34 31 29 27 27 25 20 17 13 11 14 15 12 12 13 10 7 9 10 8 6 6 4 1 356 349 346 343 342 340 338 337 333 330 328 329 332 329 322
215 215 217 215 216 220 219 216 215 224 240 246 225 209 197 188 190 200 240 218 355 3 74 43 59 18 349 29 30 3 10 3 358 11 25 33 36 37 40 40 39 37 34 33 29 25 23 21 20 19 18 16 14 12 9 7 10 13 13 12 13 14 12 8 9 11 7 2 358 356 351 346 346 344 343 339 336 335 334 334 333 331 332 332 330
219 217 219 218 217 222 223 221 221 229 237 241 232 215 200 192 203 199 179 155 32 145 149 60 27 7 357 83 356 350 1 354 11 32 37 36 37 34 33 29 24 22 19 18 14 12 13 12 13 12 12 10 7 5 3 2 3 8 16 17 14 10 2 353 356 2 358 350 345 344 342 342 343 342 340 338 336 334 333 333 334 335 334 333 332
229 225 221 217 215 224 229 227 233 240 236 234 227 210 194 189 204 197 167 136 299 174 176 235 149 166 164 149 315 354 8 12 29 38 37 34 30 24 19 13 8 5 2 360 359 1 4 6 7 6 5 4 2 359 356 355 355 356 360 3 359 352 346 343 345 346 343 341 338 339 340 341 340 338 337 337 336 335 335 335 335 336 336 336 335
230 230 223 217 218 223 223 230 251 250 229 217 206 192 190 195 198 201 209 281 268 189 178 185 168 176 184 218 290 37 29 31 36 32 33 26 13 10 5 359 357 355 353 351 352 354 357 359 360 1 1 360 357 354 351 350 349 348 346 347 347 343 342 344 345 340 338 340 339 340 341 340 338 336 336 336 334 333 334 333 330 329 329 331 331
222 228 226 216 217 220 218 236 246 222 203 196 190 190 206 215 210 225 257 267 252 198 172 178 186 194 190 223 17 59 45 33 31 24 22 4 355 354 347 348 349 349 349 349 351 353 356 357 358 357 356 355 354 352 350 349 348 346 343 340 340 339 339 343 343 340 339 340 339 339 339 337 335 335 334 334 333 332 332 331 328 327 326 326 327
221 224 223 212 210 219 227 239 224 197 195 205 205 206 205 217 229 234 238 240 230 196 177 185 193 193 177 152 75 64 51 22 13 9 357 337 336 335 336 343 344 346 349 350 354 357 359 360 359 357 355 355 355 354 353 353 353 351 349 346 344 344 344 344 343 341 342 341 339 339 337 336 335 334 333 333 333 333 333 334 333 331 330 329 328
229 216 213 210 208 218 220 215 205 201 219 224 207 202 204 214 228 225 211 201 199 189 180 185 180 171 172 168 156 163 232 315 335 331 320 318 325 331 340 345 347 350 351 354 358 360 360 360 359 358 359 359 359 358 357 356 356 356 355 353 351 350 349 348 346 344 344 343 342 341 340 338 338 336 335 334 333 333 334 333 331 332 332 330 329
226 207 201 203 206 212 207 200 207 216 221 213 197 202 212 216 217 212 203 186 174 179 180 181 176 169 176 189 190 197 225 252 275 295 308 324 335 341 344 347 350 351 352 357 360 358 358 358 360 2 3 3 2 1 360 358 357 357 356 355 353 351 348 346 345 345 344 344 344 343 342 341 340 339 338 337 336 335 334 332 330 330 331 330 329
210 202 198 201 206 211 208 207 216 216 206 201 202 205 209 210 201 191 193 185 170 174 179 180 190 187 182 190 197 203 225 242 265 296 316 330 336 340 343 346 348 350 355 359 358 356 357 359 2 4 5 5 5 4 3 0 359 359 358 356 354 351 350 348 347 346 345 345 344 344 343 341 340 340 340 338 337 335 333 333 331 330 329 327 326
206 206 206 209 211 211 210 210 209 198 192 197 200 199 195 190 184 173 174 181 176 176 178 179 194 202 193 194 198 203 225 243 260 283 305 322 327 333 340 344 348 351 356 357 357 357 359 2 4 5 5 4 5 4 3 0 360 360 359 357 355 353 351 350 348 347 346 346 345 344 343 341 340 340 340 338 336 335 333 334 333 331 329 327 326
207 209 206 205 204 203 200 197 193 186 187 190 186 184 176 168 170 172 170 174 179 179 178 181 193 200 195 201 205 206 224 241 255 273 294 309 317 328 338 342 346 350 354 355 356 358 360 3 4 3 4 4 4 4 3 1 360 358 357 354 352 350 349 348 347 347 347 346 345 344 342 341 339 338 337 335 334 333 333 333 332 330 329 327 326
206 202 195 191 193 196 190 184 182 180 182 182 177 172 168 164 165 167 164 167 174 175 179 186 198 202 197 198 207 215 226 239 249 266 281 291 308 325 335 339 342 345 348 350 354 358 1 3 4 4 4 4 4 4 2 360 357 354 351 349 348 348 348 349 349 349 349 348 347 345 343 341 339 337 336 333 332 331 331 331 330 329 328 326 323
201 192 188 185 189 194 189 186 181 174 174 175 173 168 167 166 159 154 151 154 167 174 179 188 199 207 212 210 213 228 240 243 243 256 269 276 300 320 329 332 335 338 341 347 355 1 4 6 6 5 4 3 2 1 358 355 352 350 349 349 350 351 352 353 354 353 352 351 349 347 345 342 340 338 336 335 333 331 330 329 328 328 326 324 322
195 185 185 186 191 193 191 188 177 169 169 172 173 169 166 159 150 151 152 149 161 174 177 188 202 208 223 239 244 254 256 242 233 234 249 264 282 301 314 318 323 331 339 351 3 7 9 9 6 3 1 360 358 355 353 353 351 352 353 353 355 356 357 357 357 356 355 354 353 351 350 348 346 345 343 341 339 337 335 332 330 329 324 321 320
188 182 183 188 193 193 188 181 172 168 170 174 173 167 160 154 150 153 156 154 156 168 176 186 202 210 225 244 253 262 265 249 240 231 230 247 260 271 290 298 311 331 343 357 8 9 7 5 360 357 356 354 353 352 351 353 355 356 357 357 358 359 359 359 358 357 356 356 355 354 353 351 350 349 347 345 343 342 340 336 333 331 326 323 320
185 182 183 191 195 191 182 175 171 171 171 172 169 162 158 156 154 154 157 155 149 158 170 171 191 214 226 241 248 253 256 249 245 238 230 228 228 238 264 285 315 338 347 357 6 5 359 355 351 350 352 351 350 350 351 355 357 359 359 359 360 360 359 358 357 357 356 355 354 353 352 351 349 347 345 343 341 340 339 335 333 330 327 324 321
185 186 188 192 191 184 178 175 175 173 169 169 166 160 159 159 155 152 154 150 142 147 154 157 180 213 224 237 242 242 242 238 234 233 230 217 208 216 246 288 322 334 343 354 357 354 348 346 345 346 349 349 348 350 351 355 358 359 359 358 359 358 357 357 355 355 354 353 352 351 350 348 346 344 342 340 338 338 336 333 330 327 325 322 318
187 190 191 188 184 180 179 178 177 173 168 169 167 163 161 159 153 149 147 142 135 136 137 146 197 242 246 249 251 249 249 249 251 256 257 238 206 203 218 265 307 322 332 342 347 345 339 338 341 344 346 345 346 348 350 352 355 357 357 356 357 356 355 354 353 353 352 351 350 349 348 346 344 342 340 338 336 336 334 331 329 326 323 320 315
190 191 187 182 181 181 180 180 178 173 170 170 169 166 162 157 152 146 142 137 127 116 97 45 322 290 272 267 268 273 279 281 286 293 293 286 269 246 240 253 291 311 316 324 331 332 329 331 334 338 340 341 342 345 347 349 350 352 353 353 353 352 352 351 351 351 350 350 348 347 346 343 342 340 338 337 335 334 332 331 330 326 322 319 314
191 187 182 180 181 182 182 180 177 174 172 172 171 169 164 159 154 145 138 133 112 76 45 8 333 304 284 277 277 280 285 286 288 290 287 282 277 270 264 264 280 297 301 306 313 315 318 321 324 329 332 335 337 340 343 344 345 347 348 349 349 349 349 349 349 350 349 348 347 345 344 342 340 338 337 336 335 333 332 331 329 326 323 320 314
188 184 182 182 183 184 182 180 179 177 175 176 175 171 167 162 155 148 141 127 93 57 28 3 336 307 285 276 273 273 275 275 275 274 271 268 264 259 261 267 274 281 285 291 295 300 308 312 316 322 327 330 332 334 336 337 338 340 342 344 345 345 345 347 348 348 347 346 345 343 341 340 338 337 336 335 334 333 331 330 329 326 322 320 316
187 184 184 184 184 184 183 181 181 180 178 179 177 173 169 164 160 158 148 125 85 46 16 357 335 306 281 268 265 262 262 262 261 260 257 256 254 253 255 262 271 276 276 281 287 293 300 305 309 316 322 325 327 327 327 328 330 333 336 338 341 341 343 345 346 346 345 344 342 340 339 337 336 335 335 335 334 333 331 329 327 324 322 321 318
188 186 186 186 185 185 184 183 183 182 181 181 180 176 172 169 169 166 154 135 85 26 360 344 326 298 274 261 256 254 254 252 251 250 249 249 250 252 256 259 268 275 278 280 283 288 297 301 304 311 318 320 320 320 319 320 323 327 330 332 335 338 340 342 343 344 343 341 339 338 336 335 334 334 335 335 334 332 330 328 326 323 322 323 320
192 190 189 189 188 186 185 185 185 184 184 182 181 179 176 176 175 171 163 154 92 356 331 318 304 282 264 254 250 248 247 246 245 245 245 245 246 250 255 259 265 273 280 284 284 288 296 300 301 308 314 314 314 314 313 315 318 320 323 327 330 334 337 339 341 341 340 338 336 334 333 333 333 334 335 335 334 331 329 328 325 323 323 323 319
195 193 192 191 190 189 188 187 187 186 186 184 182 181 181 181 180 176 173 175 231 299 284 281 274 263 255 249 248 246 243 242 242 243 243 245 247 249 253 258 264 270 277 282 287 290 293 298 301 306 310 311 311 310 310 312 313 315 319 323 326 330 333 336 338 339 337 335 333 331 331 332 334 336 336 334 333 331 329 327 325 324 324 321 317
198 196 195 194 192 191 190 189 189 188 188 187 185 185 187 187 185 183 185 196 241 263 261 258 253 250 249 248 247 245 243 243 242 244 245 245 248 250 254 259 264 270 274 280 286 288 290 296 301 305 307 308 309 308 308 309 310 312 316 320 324 327 330 333 335 336 335 332 330 329 330 333 336 337 336 334 333 332 330 329 327 327 326 321 316
201 198 197 197 195 194 192 192 192 191 191 190 189 190 192 193 192 191 196 209 239 254 254 251 245 242 245 248 248 245 245 246 244 245 247 250 252 254 256 260 264 270 275 278 282 285 290 296 300 302 304 305 307 307 306 308 309 311 315 318 321 324 327 330 332 334 333 330 329 328 331 335 338 337 335 334 334 333 332 332 330 329 327 323 318
202 201 200 200 199 196 194 195 195 195 194 194 194 195 196 197 196 199 208 220 239 252 255 252 246 241 243 246 249 249 248 249 249 250 251 253 256 257 260 263 266 271 275 277 281 285 290 295 299 301 301 303 306 306 306 307 309 311 314 317 318 321 324 327 330 332 331 329 328 328 332 337 337 335 334 334 335 335 334 333 332 331 329 327 322
205 204 203 203 202 199 198 198 198 199 199 198 199 200 201 202 201 205 216 228 244 256 257 254 249 245 245 246 249 251 251 251 253 256 257 257 259 261 263 266 269 273 275 277 282 288 291 293 297 298 299 302 303 305 305 307 309 311 314 316 317 319 322 325 328 331 331 330 328 328 333 337 336 334 334 336 336 335 334 333 333 332 331 328 323
207 206 206 205 204 202 202 201 201 201 202 203 204 205 206 207 209 213 222 234 249 256 257 255 251 249 248 248 250 252 254 258 259 259 260 260 262 265 268 271 273 274 276 278 282 289 294 296 296 296 298 300 302 304 305 306 309 311 313 315 316 317 321 323 326 330 332 330 327 328 334 337 335 333 334 336 336 335 334 335 334 333 330 327 323
209 208 208 207 206 205 204 205 204 204 205 206 208 210 211 212 215 220 228 239 250 255 255 255 252 251 251 250 252 255 258 261 262 262 263 264 267 270 272 274 275 275 277 280 284 289 295 296 296 297 298 299 300 302 304 305 307 309 311 313 314 316 319 321 325 330 332 330 327 329 335 338 334 332 333 336 335 335 335 335 334 332 330 327 324
210 209 209 209 208 208 207 207 207 207 208 210 212 214 215 216 219 226 233 242 250 253 254 256 256 254 252 252 255 258 260 261 263 264 266 268 271 272 274 275 276 277 278 281 285 288 292 294 295 297 298 299 300 301 303 304 306 308 310 311 312 314 317 320 324 330 331 328 326 329 335 337 332 330 332 335 336 336 336 335 333 332 330 328 326
212 211 210 210 210 210 211 211 211 211 212 215 217 218 219 220 222 228 237 245 250 253 256 260 260 257 254 254 256 258 260 262 264 267 268 270 272 272 275 277 278 279 279 281 284 286 289 291 293 295 296 297 299 300 302 303 305 306 308 309 311 313 316 319 323 328 330 327 325 328 334 336 330 328 331 335 336 338 337 334 333 332 330 329 329
213 212 212 212 212 213 214 215 215 215 216 218 221 222 223 225 227 232 240 247 251 254 260 264 263 261 259 257 257 259 261 263 265 267 268 270 272 274 277 279 279 280 280 282 284 285 287 289 290 292 293 295 297 299 301 303 304 306 307 308 310 312 314 317 320 326 329 326 324 327 333 334 329 327 330 334 336 338 337 335 333 332 332 331 332
214 214 215 215 215 216 217 217 217 217 219 221 224 225 226 229 233 238 243 248 253 260 265 266 264 262 262 261 261 261 262 263 264 266 269 271 273 275 277 279 280 281 282 283 284 285 286 287 288 290 292 293 295 297 299 301 303 305 306 307 309 311 314 316 319 323 326 325 323 325 331 333 328 325 328 332 336 339 338 336 333 333 333 333 334
217 217 217 218 219 219 219 219 219 219 221 224 227 228 230 232 236 240 245 249 258 266 267 266 264 264 265 265 264 263 262 263 265 267 270 272 274 276 278 280 280 281 283 284 284 285 286 287 288 289 291 292 294 296 297 299 302 303 304 307 308 310 313 315 317 320 323 323 321 322 328 331 327 325 327 330 335 339 339 336 333 333 334 335 336
219 219 219 221 222 222 221 221 221 222 224 227 230 232 235 237 239 242 245 252 264 270 267 264 265 266 267 268 266 263 261 263 266 269 272 274 275 277 279 280 280 281 283 284 285 286 287 287 288 289 290 291 293 295 297 300 302 302 303 306 307 308 311 312 314 317 321 323 320 319 324 330 328 326 327 328 333 339 339 336 334 333 334 337 339
221 221 221 223 224 224 225 224 224 225 227 229 233 235 237 238 240 243 246 255 267 272 268 266 266 268 270 270 266 262 261 264 267 271 274 276 277 279 280 280 281 282 283 284 285 287 288 288 289 290 290 291 293 295 297 300 301 300 302 304 305 306 309 311 313 316 320 322 319 317 321 328 328 325 325 327 330 336 338 337 335 334 334 338 339
223 223 224 225 226 226 227 228 228 229 231 233 236 237 237 238 239 241 248 259 270 274 273 269 268 270 271 268 265 263 263 267 270 273 275 276 278 281 282 282 281 282 283 284 286 288 288 288 289 289 290 292 295 297 298 299 299 299 301 303 303 304 307 309 311 314 318 321 318 316 319 325 327 323 323 325 327 332 336 337 335 334 335 338 339
226 227 227 228 228 229 229 230 231 232 235 237 239 239 237 238 239 242 250 263 272 278 277 272 271 273 270 266 264 264 266 269 272 273 274 276 279 282 283 283 282 282 283 284 286 288 288 288 289 290 291 294 296 297 298 298 298 298 300 301 300 300 302 305 307 310 315 319 317 314 316 322 325 321 320 323 325 327 333 337 336 334 335 338 339
230 230 230 230 231 231 231 232 233 235 238 240 240 240 239 240 242 244 253 267 275 280 280 276 275 275 270 264 263 265 268 271 273 274 275 277 279 282 282 283 283 284 285 286 288 289 289 289 290 291 293 295 296 296 297 296 296 297 299 298 296 296 299 302 304 307 312 317 316 313 313 318 323 319 318 322 323 323 330 337 337 335 335 336 338
231 232 232 233 233 233 233 234 236 239 242 241 241 241 241 243 244 247 259 272 277 281 284 281 278 275 268 263 264 267 270 272 273 274 276 278 279 280 280 281 283 285 286 288 290 292 292 292 292 293 296 296 295 296 296 294 295 296 296 294 293 295 298 301 302 304 310 313 313 310 309 314 321 317 315 320 321 321 327 335 337 336 335 336 338
231 232 233 235 236 237 237 238 241 244 244 242 242 242 244 246 246 251 266 275 277 282 285 283 278 273 265 261 264 269 271 273 274 274 276 278 279 279 279 280 282 283 284 286 288 290 290 291 292 295 296 296 295 294 293 292 293 294 293 292 292 295 298 299 300 302 305 307 308 306 305 310 318 315 313 319 320 319 324 331 336 336 335 337 338
233 233 235 237 239 239 240 242 246 248 246 244 244 244 246 247 247 255 270 277 277 281 286 283 277 270 264 262 266 270 272 274 275 274 275 277 278 279 280 280 281 282 283 285 286 287 287 288 290 293 293 292 292 290 289 290 290 290 290 290 291 294 296 296 297 299 301 302 305 304 302 308 315 314 312 318 320 318 321 327 333 336 337 337 336
236 235 236 238 239 240 243 247 250 251 249 247 247 248 249 249 249 259 273 278 278 281 283 282 276 268 263 264 267 270 272 274 275 275 274 274 276 279 280 281 282 282 282 284 285 284 285 286 288 289 288 288 288 286 286 285 281 282 286 288 289 290 290 291 293 297 298 299 304 305 302 306 313 313 313 317 317 317 319 323 330 336 337 335 334
240 239 239 240 240 242 247 251 252 252 252 251 251 251 252 250 250 262 274 278 278 278 279 278 274 268 265 267 268 270 272 274 276 275 273 273 275 278 281 282 282 282 283 285 285 284 284 285 285 285 285 286 285 284 281 275 271 276 282 284 285 285 285 286 290 294 295 297 302 305 304 306 311 313 315 316 316 317 320 322 326 332 335 334 332
245 243 243 243 244 248 251 253 253 253 253 253 253 254 254 251 254 265 274 276 275 275 275 275 273 268 266 268 269 271 274 275 275 275 274 274 275 277 280 281 280 282 285 287 286 284 284 283 283 283 283 283 282 280 277 273 272 276 278 279 279 280 281 284 287 289 291 294 301 308 305 305 309 312 316 318 317 317 319 320 322 328 333 333 331